Find Kosmos-2333

NORAD ID: 24297 Int'l Des: 1996-051 Owner: GRUR Country: RU operational
LEOCIRCULAR

当前视图

正在加载3D地球...

About Kosmos-2333

Kosmos-2333 (NORAD 24297) is a satellite launched Sep 4, 1996 by GRUR of RU. It operates in LEO, CIRCULAR orbit with a mass of 3250.00 kg.

即将过境

Passes for default location (London). Set your location on the main map for personalized predictions.

高度历史

Loading altitude history...

两行轨道根数

1 24297U 96051A 26194.68673486 .00000135 00000-0 96604-4 0 9993
2 24297 70.9058 279.0276 0026059 274.2647 85.5496 14.13849831540044
Epoch: Jul 13, 2026 • Age: 12 hours

当前状态

高度 850.0 km
远地点 / 近地点 N/A
速度 7.43 km/s
星下点 9.49°N, 77°W
发射日期 Sep 4, 1996
运行时间 29.8 years
类型 other

技术详情

分类 Payload
质量 3250.00 kg
干质量 3250.00 kg
总质量 3250.00 kg
长度 4.50 m
直径 1.40 m
跨度 22.70 m
形状 Cyl + 2 Pan + Ant
制造商 YUZHUA
平台类型 Tselina-2
阶段状态 Unknown Transfer Status
所有者/国家 GRUR/RU

Most Searched